[TLELIST] Archives

 

Current TLEs

August 24th 2006 PDT

HST 1 20580U 90037B 06235.62670437 +.00000559 +00000-0 +30786-4 0 06865 2 20580 028.4708 330.2404 0004099 179.1446 180.9147 15.00080562695238 ISS (ZARYA) 1 25544U 98067A 06236.46464317 .00084474 00000-0 54409-3 0 5484 2 25544 051.6340 195.6580 0011134 254.8737 205.0549 15.75356580443934 CXO 1 25867U 99040B 06236.50000000 .00000000 00000-0 00000+0 0 9643 2 25867 060.0283 095.6694 5878274 289.2767 358.3252 00.37799742 1210 ____________________________________________________________________ These 2-Line ...Continue Reading

Current TLEs

August 23rd 2006 PDT

HST 1 20580U 90037B 06233.63073635 .00000511 00000-0 27048-4 0 6811 2 20580 028.4700 343.2524 0004218 161.9963 198.0776 15.00078730694931 ISS (ZARYA) 1 25544U 98067A 06235.44889008 .00016691 00000-0 10581-3 0 5411 2 25544 051.6300 200.8852 0006709 226.5292 227.9823 15.76665818443773 CXO 1 25867U 99040B 06236.50000000 .00000000 00000-0 00000+0 0 9643 2 25867 060.0283 095.6694 5878274 289.2767 358.3252 00.37799742 1210 ____________________________________________________________________ These 2-Line ...Continue Reading

Current TLEs

August 22nd 2006 PDT

HST 1 20580U 90037B 06233.63073635 .00000511 00000-0 27048-4 0 6811 2 20580 028.4700 343.2524 0004218 161.9963 198.0776 15.00078730694931 ISS (ZARYA) 1 25544U 98067A 06234.11852756 .00014812 00000-0 94585-4 0 5357 2 25544 051.6298 207.7447 0006705 220.6818 237.6920 15.76614705443562 CXO 1 25867U 99040B 06233.87500000 .00000000 00000-0 00000+0 0 9634 2 25867 060.0409 095.7299 5869225 289.3311 000.9535 00.37789634 1217 ____________________________________________________________________ These 2-Line ...Continue Reading

Current TLEs

August 21st 2006 PDT

HST 1 20580U 90037B 06231.70129931 +.00000323 +00000-0 +12304-4 0 06986 2 20580 028.4687 355.8367 0003966 144.3903 215.6952 15.00076804694647 ISS (ZARYA) 1 25544U 98067A 06233.30184527 .00013126 00000-0 84407-4 0 5316 2 25544 051.6300 211.9574 0006907 217.3264 282.5952 15.76582899443434 CXO 1 25867U 99040B 06233.87500000 .00000000 00000-0 00000+0 0 9634 2 25867 060.0409 095.7299 5869225 289.3311 000.9535 00.37789634 1217 ____________________________________________________________________ These 2-Line ...Continue Reading

Current TLEs

August 20th 2006 PDT

HST 1 20580U 90037B 06230.70331331 .00000287 00000-0 94725-5 0 6790 2 20580 028.4687 002.3435 0003898 135.1272 224.9632 15.00076252694496 ISS (ZARYA) 1 25544U 98067A 06232.47844569 .00006040 00000-0 41148-4 0 5257 2 25544 051.6299 216.2012 0006901 212.0437 291.3544 15.76540810443302 CXO 1 25867U 99040B 06231.20833333 .00000000 00000-0 00000+0 0 9626 2 25867 060.0480 095.7433 5863092 289.4430 357.8723 00.37786002 1214 ____________________________________________________________________ These 2-Line ...Continue Reading

Current TLEs

August 19th 2006 PDT

HST 1 20580U 90037B 06229.63879405 .00000318 00000-0 11896-4 0 6780 2 20580 028.4685 009.2836 0003856 123.8483 236.2472 15.00076161694337 ISS (ZARYA) 1 25544U 98067A 06230.45246743 .00003156 00000-0 23489-4 0 5155 2 25544 051.6301 226.6450 0007142 204.2808 312.9009 15.76506889442987 CXO 1 25867U 99040B 06231.20833333 .00000000 00000-0 00000+0 0 9626 2 25867 060.0480 095.7433 5863092 289.4430 357.8723 00.37786002 1214 ____________________________________________________________________ These 2-Line ...Continue Reading

Current TLEs

August 18th 2006 PDT

HST 1 20580U 90037B 06229.63879405 .00000318 00000-0 11896-4 0 6780 2 20580 028.4685 009.2836 0003856 123.8483 236.2472 15.00076161694337 ISS (ZARYA) 1 25544U 98067A 06230.31348382 .00003022 00000-0 22671-4 0 5145 2 25544 051.6297 227.3621 0007221 204.0710 243.7834 15.76505048442968 CXO 1 25867U 99040B 06231.20833333 .00000000 00000-0 00000+0 0 9626 2 25867 060.0480 095.7433 5863092 289.4430 357.8723 00.37786002 1214 ____________________________________________________________________ These 2-Line ...Continue Reading

Current TLEs

August 17th 2006 PDT

HST 1 20580U 90037B 06228.57427375 .00000396 00000-0 18018-4 0 6775 2 20580 028.4686 016.2226 0003885 112.3715 247.7285 15.00076446694179 ISS (ZARYA) 1 25544U 98067A 06229.49828090 .00002901 00000-0 21936-4 0 5093 2 25544 051.6307 231.5641 0007278 199.8607 298.2561 15.76498817442830 CXO 1 25867U 99040B 06228.58333333 .00000000 00000-0 00000+0 0 9617 2 25867 060.0349 095.7674 5864016 289.5403 000.4518 00.37794474 1218 ____________________________________________________________________ These 2-Line ...Continue Reading

Current TLEs

August 16th 2006 PDT

HST 1 20580U 90037B 06227.77588393 +.00000406 +00000-0 +18802-4 0 06856 2 20580 028.4686 021.4257 0003888 103.8491 256.2533 15.00076145694054 ISS (ZARYA) 1 25544U 98067A 06227.82708333 +.00003057 +00000-0 +22902-4 0 05014 2 25544 051.6310 240.1789 0007321 193.6492 173.3828 15.76487623442579 CXO 1 25867U 99040B 06228.58333333 .00000000 00000-0 00000+0 0 9617 2 25867 060.0349 095.7674 5864016 289.5403 000.4518 00.37794474 1218 ____________________________________________________________________ These 2-Line ...Continue Reading

Current TLEs

August 15th 2006 PDT

HST 1 20580U 90037B 06226.77789641 .00000380 00000-0 16768-4 0 6764 2 20580 028.4685 027.9318 0003780 093.3469 266.7550 15.00075454693901 ISS (ZARYA) 1 25544U 98067A 06227.47405193 .00003221 00000-0 23913-4 0 4973 2 25544 051.6304 241.9993 0007443 191.6680 330.4339 15.76485532442514 CXO 1 25867U 99040B 06225.91666667 .00000000 00000-0 00000+0 0 9609 2 25867 060.0065 095.8521 5865940 289.5486 357.4355 00.37805708 1210 ____________________________________________________________________ These 2-Line ...Continue Reading
  • This mailing list is a public mailing list - anyone may join or leave, at any time.
  • This mailing list is announce-only.

International Space Station (ISS) / Hubble Space Telescope (HST) / Chandra X-Ray Observatory Orbital Data via EMAIL

Privacy Policy:

Private list